{"data":{"norad_id":58640,"intl_designator":"2023-203Y","name":"STARLINK-31090","alt_names":[],"object_type":"PAYLOAD","status":"ACTIVE","operator":null,"country":"US","launch_date":"2023-12-23","launch_site_code":"AFETR","launch_vehicle":null,"mission":null,"orbit_class":"UNKNOWN","rcs_meters":null,"size_class":null,"mass_kg":null,"dimensions":null,"purposes":["comms"],"wikipedia_slug":null,"has_3d_model":false,"image_url":null,"decayed_at":null,"tle_current":{"epoch":"2026-05-24T22:50:22.108992Z","epoch_age_seconds":89477,"freshness":"FRESH","line1":"1 58640U 23203Y   26144.95164478 -.00001871  00000+0 -58500-4 0  9994","line2":"2 58640  43.0054 348.7147 0001047 296.4448  63.6296 15.27564994135322","mean_motion":15.27564994,"eccentricity":0.0001047,"inclination_deg":43.0054,"raan_deg":348.7147,"arg_perigee_deg":296.4448,"mean_anomaly_deg":63.6296,"bstar":-5.85e-5,"rev_number":13532,"period_min":94.267674740915,"perigee_km":482.37565888105,"apogee_km":483.81240065868,"semimajor_km":6861.2310297699,"source":"CELESTRAK","updated_at":"2026-05-25T13:38:18.709712Z"}}}